Home   Weather   Oelde   Past weeks

Flag for Germany Past Weather in Oelde, North Rhine-Westphalia, Germany — Yesterday and Last 2 Weeks

Now
25 °F

Ice fog.


Feels Like: 20 °F
Forecast: 21 / 30 °F
Wind: 3 mph from Southeast

Location: Muenster / Osnabrueck

Current Time: Jan 18, 2017 at 12:42:38 am

Latest Report: Jan 17, 2017 at 11:50 pm


Visibility: 2 mi

Pressure: 30.72 "Hg

Humidity: 100%

Dew Point: 25 °F

Location of OeldeLocation

Past Weather in Oelde — Graph

°F

Oelde Temperature Yesterday

Maximum temperature yesterday: 27 °F (at 12:20 am)
Minimum temperature yesterday: 25 °F (at 5:20 am)
Average temperature yesterday: 26 °F

High & Low Weather Summary for the Past Weeks

 TemperatureHumidityPressure
High46 °F (Jan 11, 1:50 pm)100% (Jan 3, 4:50 am)30.74 "Hg (Jan 3, 4:50 am)
Low16 °F (Jan 6, 5:20 am)59% (Jan 5, 3:20 pm)28.94 "Hg (Jan 13, 2:20 am)
Average33 °F88%30.09 "Hg
* Reported Jan 2 11:20 pm — Jan 17 11:20 pm, Oelde, Weather by CustomWeather, © 2017

Note: Actual official high and low records may vary slightly from our data, if they occured in-between our weather recording intervals... More about our weather records

Advertising

Oelde Weather History for the Previous 24 Hours

Scroll right to see more
 ConditionsComfort  
Time TempWeatherWind HumidityBarometerVisibility
11:20 pm
Tue, Jan 17
25 °FIce fog.3 mph100%30.72 "Hg2 mi
10:50 pm25 °FIce fog.2 mph100%30.72 "Hg2 mi
10:20 pm25 °FIce fog.2 mph100%30.72 "Hg2 mi
9:50 pm25 °FIce fog.No wind100%30.69 "Hg2 mi
9:20 pm25 °FIce fog.2 mph93%30.69 "Hg2 mi
8:50 pm25 °FIce fog.No wind100%30.69 "Hg2 mi
8:20 pm25 °FIce fog.1 mph100%30.69 "Hg2 mi
7:50 pm25 °FIce fog.No wind100%30.69 "Hg2 mi
7:20 pm25 °FIce fog.2 mph100%30.69 "Hg2 mi
6:50 pm25 °FIce fog.2 mph100%30.69 "Hg2 mi
6:20 pm25 °FIce fog.1 mph100%30.69 "Hg2 mi
5:50 pm25 °FIce fog.No wind93%30.66 "Hg2 mi
5:20 pm25 °FIce fog.3 mph93%30.66 "Hg2 mi
4:50 pm25 °FIce fog.No wind93%30.66 "Hg3 mi
4:20 pm25 °FIce fog.1 mph93%30.66 "Hg3 mi
3:50 pm25 °FIce fog.3 mph93%30.66 "Hg3 mi
3:20 pm27 °FIce fog.3 mph93%30.66 "Hg3 mi
2:50 pm27 °FIce fog.2 mph93%30.66 "Hg3 mi
2:20 pm27 °FIce fog.1 mph93%30.66 "Hg3 mi
1:50 pm27 °FIce fog.2 mph93%30.66 "Hg3 mi
1:20 pm25 °FLight snow. Ice fog.No wind100%30.66 "Hg2 mi
12:50 pm27 °FIce fog.2 mph93%30.66 "Hg2 mi
12:20 pm25 °FIce fog.3 mph100%30.66 "Hg2 mi
11:50 am27 °FIce fog.3 mph93%30.66 "Hg2 mi
11:20 am27 °FIce fog.5 mph93%30.66 "Hg2 mi
10:50 am27 °FIce fog.1 mph93%30.66 "Hg2 mi
10:20 am27 °FIce fog.3 mph93%30.63 "Hg2 mi
9:50 am25 °FIce fog.5 mph100%30.63 "Hg2 mi
9:20 am25 °FIce fog.2 mph100%30.63 "Hg2 mi
8:50 am25 °FIce fog.3 mph100%30.63 "Hg2 mi
8:20 am25 °FIce fog.3 mph93%30.60 "Hg2 mi
7:50 am25 °FIce fog.2 mph100%30.60 "Hg3 mi
7:20 am25 °FLow clouds.3 mph100%30.60 "Hg4 mi
6:50 am25 °FLow clouds.5 mph93%30.60 "Hg4 mi
6:20 am25 °FPassing clouds.6 mph93%30.57 "Hg4 mi
5:50 am25 °FPassing clouds.2 mph93%30.57 "Hg4 mi
5:20 am25 °FPassing clouds.No wind93%30.57 "Hg4 mi
4:50 am27 °FLow clouds.No wind86%30.57 "Hg4 mi
4:20 am27 °FLow clouds.No wind93%30.57 "Hg4 mi
3:50 am27 °FLow clouds.2 mph93%30.57 "Hg4 mi
3:20 am27 °FLow clouds.3 mph93%30.57 "Hg4 mi
2:50 am27 °FIce fog.6 mph93%30.54 "Hg3 mi
2:20 am27 °FIce fog.5 mph93%30.54 "Hg3 mi
1:50 am27 °FIce fog.5 mph93%30.54 "Hg3 mi
1:20 am27 °FIce fog.3 mph93%30.54 "Hg3 mi
12:50 am27 °FIce fog.3 mph93%30.54 "Hg3 mi
12:20 am27 °FLow clouds.3 mph93%30.51 "Hg4 mi
Weather by CustomWeather, © 2017

See weather overviewHow to use our weather pages